リニア彗星

176P/(118401) LINEAR (2005)

English version
Home page
Total 6,336 html files since Dec. 4, 1995
Updated on October 12, 2008

---------------------------------------------------------------------

・ プロフィール

・ 軌道要素

The following orbital elements are taken from

Epoch 2006 Mar. 6.0 TT = JDT 2453800.5
T 2005 Oct. 18.3414 TT                                  MPC
q   2.581071             (2000.0)            P               Q
n   0.1724870      Peri.   36.1464      +0.9223019      -0.3864691
a   3.196184       Node   346.5884      +0.3535982      +0.8448566
e   0.192452       Incl.    0.2379      +0.1559730      +0.3699446
P   5.71
From 135 observations 1999-2005, mean residual 0".5.

・ 光度変化

        H = 15.6  G = 0.15

---------------------------------------------------------------------

軌道要素はMPCのEphemerides and Orbital Elementsに掲載されたものです。
光度グラフはComet for Windowsで作成したものです。

---------------------------------------------------------------------

Copyright(C) 1995-2008 Seiichi Yoshida (comet@aerith.net). All rights reserved.